[[{"header":{"parameterUnit":"m.s-1","parameterCategory":1,"la1":30.2991,"la2":30.254,"lo1":-89.0895,"lo2":-89.0444,"dy":0.0017,"dx":0.0017,"nx":28,"ny":28,"refTime":"2023-10-10T03:00:00:Z","depth":0,"parameterNumber":2,"parameterNumberName":"U-component_of_WINDS"},"data":[0,0,0,0,0,0,0,0,0,0,0,0,0,0,0,0,0,0,0,0,0,0,0,0,0,0,0,0,0,0,0,0,0,0,0,0,0,0,0,0,0,0,0,0,0,0,0,0,0,0,0,0,0,0,0,0,0,0,0.3691,0.3691,0,0.376,0.376,0.3761,0.3807,0.3807,0.3808,0.3808,0.3878,0.388,0.3881,0,0,0,0,0,0,0,0,0,0,0,0,0,0.3598,0.3599,0.369,0.3691,0.3692,0.376,0.376,0.3761,0.3807,0.3808,0.3808,0.3808,0.3878,0.3879,0.3881,0,0,0,0,0,0,0,0,0,0,0,0,0,0.365,0.36,0.369,0.3723,0.3727,0.3759,0.3761,0.3762,0.3807,0.3808,0.3808,0.3808,0.3877,0.3879,0.3882,0.3887,0,0,0.3889,0.389,0,0,0,0,0,0,0,0,0.3647,0.3653,0.3717,0.3721,0.3725,0.3775,0.3754,0.3804,0.3807,0.3777,0.3808,0.3809,0.3843,0.3849,0.386,0.389,0.3893,0.3889,0.389,0.3891,0.3892,0,0,0,0,0,0,0,0.3643,0.365,0.3718,0.3718,0.3723,0.3734,0.3742,0.3763,0.3806,0.3779,0.3783,0.379,0.3846,0.3858,0.3862,0.3894,0.3889,0.3891,0.3892,0.3893,0.3932,0.3932,0,0,0,0,0,0,0.3634,0.3647,0.3716,0.372,0.3686,0.3736,0.3745,0.3759,0.3806,0.3814,0.379,0.3792,0.3854,0.386,0.3865,0.3875,0.3891,0.3894,0.3895,0.3932,0.3932,0.3932,0,0,0,0,0,0,0.3632,0.364,0.3713,0.3685,0.3695,0.3737,0.3752,0.376,0.3772,0.3814,0.3822,0.3795,0.3854,0.3862,0.3881,0.3878,0.3895,0.3897,0.3933,0.3932,0.3932,0.3894,0,0,0,0,0,0,0.3629,0.3639,0.3641,0.3684,0.3696,0.3728,0.3752,0.3761,0.3776,0.378,0.3821,0.3828,0.3855,0.3877,0.3884,0.3881,0.3899,0.3933,0.3933,0.3932,0.3896,0.3892,0.3889,0,0,0,0,0,0.3626,0.3628,0.3641,0.3649,0.37,0.3727,0.3734,0.3766,0.3776,0.3779,0.3806,0.3827,0.3877,0.3879,0.3886,0.3885,0.3934,0.3933,0.3932,0.3897,0.3893,0.3889,0,0,0,0,0,0,0.3583,0.3634,0.3649,0.3665,0.3692,0.3735,0.374,0.376,0.3784,0.3786,0.3824,0.3833,0.3849,0.3869,0.387,0.3893,0.3908,0.3909,0.3879,0.3875,0.3872,0.3867,0.3901,0,0,0,0,0,0.3575,0.3593,0.3637,0.3646,0.3659,0.3697,0.371,0.3732,0.3761,0.3772,0.3801,0.3828,0.385,0.3864,0.3886,0.3899,0.3909,0.3901,0.3898,0.3895,0.3895,0.3904,0.3902,0.3929,0.3929,0.3929,0,0,0.3559,0.3589,0.3598,0.3639,0.3662,0.368,0.3706,0.3724,0.3738,0.3775,0.3795,0.3817,0.385,0.3866,0.3875,0.3884,0.389,0.3894,0.3892,0.3893,0.3903,0.39,0.3898,0.3928,0.3928,0.3928,0,0,0.354,0.3564,0.3575,0.3598,0.3633,0.3659,0.3661,0.3702,0.3718,0.3739,0.3768,0.3785,0.3822,0.3844,0.3861,0.3851,0.3871,0.3857,0.384,0.3848,0.3846,0.3844,0.3841,0.3839,0.3857,0.3857,0.3857,0,0.3516,0.3544,0.3578,0.3595,0.3612,0.3647,0.3659,0.3679,0.3719,0.373,0.374,0.3787,0.3812,0.3834,0.3832,0.3844,0.3848,0.3852,0.3843,0.3842,0.3841,0.3838,0.3837,0.3855,0.3855,0.3855,0.3855,0,0.3513,0.3533,0.3537,0.3576,0.3594,0.3608,0.3644,0.3657,0.3678,0.3702,0.3724,0.3754,0.3784,0.3791,0.3811,0.3816,0.3821,0.3836,0.3852,0.3836,0.3834,0.3833,0.3852,0.3853,0.3853,0.3854,0,0,0.3468,0.3526,0.3527,0.3546,0.3587,0.3603,0.3619,0.3648,0.3659,0.3686,0.3701,0.3731,0.3746,0.3765,0.3788,0.3795,0.3785,0.3809,0.3811,0.3804,0.3794,0.3782,0.378,0.3799,0.3799,0.3799,0.3791,0,0.3455,0.3486,0.3517,0.3536,0.3555,0.3589,0.3603,0.363,0.3653,0.3672,0.3698,0.372,0.3737,0.3749,0.3757,0.3785,0.3784,0.3786,0.3813,0.3814,0.3804,0.3779,0.3767,0.3758,0.3791,0.3791,0.379,0,0.3444,0.347,0.3491,0.3532,0.3541,0.3553,0.3583,0.3601,0.3632,0.3649,0.367,0.3694,0.3713,0.3727,0.3753,0.3754,0.3767,0.3782,0.3783,0.3786,0.3801,0.3783,0.3756,0.3754,0.379,0.379,0.379,0,0.341,0.345,0.3468,0.3483,0.353,0.3538,0.3558,0.359,0.3606,0.3632,0.3643,0.3671,0.3686,0.3707,0.3739,0.3746,0.3762,0.3778,0.3776,0.3775,0.3778,0.3777,0.3752,0.3786,0.3786,0.3786,0.3786,0,0.3392,0.3404,0.3453,0.3464,0.3479,0.3515,0.3528,0.3551,0.3579,0.3596,0.3627,0.3641,0.3682,0.3702,0.3726,0.3745,0.3751,0.3765,0.3772,0.3762,0.3761,0.3772,0.3773,0.3785,0.3786,0.3786,0.3786,0,0.3356,0.3389,0.3411,0.3455,0.3466,0.3475,0.3512,0.3525,0.355,0.357,0.3577,0.3617,0.3642,0.3675,0.371,0.3727,0.3742,0.3752,0.3731,0.3735,0.3731,0.3731,0.3713,0.3712,0.3745,0.3745,0.3745,0,0.3343,0.3353,0.3397,0.3411,0.343,0.3451,0.3468,0.3504,0.352,0.3557,0.3565,0.3592,0.3616,0.3654,0.3686,0.3713,0.3724,0.3716,0.3728,0.3719,0.3724,0.3723,0.3725,0.3712,0.3712,0.3711,0.3711,0,0.3316,0.3332,0.3355,0.3384,0.3403,0.3428,0.3453,0.3463,0.3504,0.3521,0.3547,0.3565,0.3601,0.3628,0.3659,0.368,0.3703,0.3707,0.3708,0.3699,0.3686,0.3693,0.3723,0.3707,0.3708,0.3708,0.3708,0.3708,0.3291,0.3301,0.3335,0.336,0.3383,0.3407,0.3421,0.3448,0.347,0.3503,0.3523,0.3548,0.358,0.3625,0.3644,0.3665,0.3674,0.3675,0.3675,0.3675,0.3672,0.3683,0.367,0.3671,0.3671,0.3671,0.3671,0,0.3266,0.3289,0.3312,0.3347,0.3367,0.3387,0.3417,0.3432,0.3453,0.3481,0.3504,0.3534,0.3561,0.3595,0.3624,0.3633,0.3644,0.3639,0.3639,0.3644,0.3662,0.3659,0.363,0.363,0.363,0.363,0.363,0.363,0.3255,0.3274,0.3295,0.3326,0.335,0.3375,0.339,0.3412,0.3435,0.3467,0.3489,0.3512,0.3542,0.3574,0.3599,0.3608,0.3617,0.3609,0.3622,0.3639,0.3642,0.3646,0.3643,0.3611,0.3611,0.3602,0.3602,0.3602]},{"header":{"parameterUnit":"m.s-1","parameterCategory":1,"la1":30.2991,"la2":30.254,"lo1":-89.0895,"lo2":-89.0444,"dy":0.0017,"dx":0.0017,"nx":28,"ny":28,"refTime":"2023-10-10T03:00:00:Z","depth":0,"parameterNumber":3,"parameterNumberName":"V-component_of_WINDS"},"data":[0,0,0,0,0,0,0,0,0,0,0,0,0,0,0,0,0,0,0,0,0,0,0,0,0,0,0,0,0,0,0,0,0,0,0,0,0,0,0,0,0,0,0,0,0,0,0,0,0,0,0,0,0,0,0,0,0,0,-0.6081,-0.6081,0,-0.6073,-0.6073,-0.6073,-0.6058,-0.6058,-0.6057,-0.6057,-0.6049,-0.6049,-0.6049,0,0,0,0,0,0,0,0,0,0,0,0,0,-0.6083,-0.6083,-0.6081,-0.6081,-0.6081,-0.6073,-0.6073,-0.6073,-0.6058,-0.6058,-0.6057,-0.6057,-0.6049,-0.6049,-0.6049,0,0,0,0,0,0,0,0,0,0,0,0,0,-0.608,-0.6083,-0.6081,-0.6072,-0.6072,-0.6073,-0.6073,-0.6073,-0.6058,-0.6058,-0.6057,-0.6057,-0.6049,-0.6049,-0.6049,-0.6058,0,0,-0.6049,-0.6049,0,0,0,0,0,0,0,0,-0.608,-0.6079,-0.6074,-0.6073,-0.6072,-0.6066,-0.6071,-0.6068,-0.6058,-0.6063,-0.6057,-0.6057,-0.6055,-0.6055,-0.6054,-0.6058,-0.6058,-0.6049,-0.605,-0.605,-0.605,0,0,0,0,0,0,0,-0.608,-0.608,-0.6078,-0.6074,-0.6073,-0.6069,-0.6068,-0.607,-0.6062,-0.6063,-0.6062,-0.6061,-0.6055,-0.6054,-0.6054,-0.6058,-0.6049,-0.605,-0.605,-0.605,-0.6068,-0.6068,0,0,0,0,0,0,-0.6082,-0.608,-0.6078,-0.6078,-0.6075,-0.6069,-0.6068,-0.6068,-0.6062,-0.606,-0.6061,-0.606,-0.6054,-0.6054,-0.6053,-0.6063,-0.605,-0.605,-0.605,-0.6068,-0.6068,-0.6069,0,0,0,0,0,0,-0.6082,-0.6082,-0.6078,-0.6079,-0.6078,-0.607,-0.607,-0.6069,-0.6068,-0.6061,-0.6059,-0.6062,-0.6054,-0.6053,-0.6057,-0.6063,-0.605,-0.605,-0.6067,-0.6068,-0.6068,-0.6084,0,0,0,0,0,0,-0.6082,-0.6082,-0.6085,-0.6079,-0.6078,-0.6082,-0.6071,-0.6069,-0.6068,-0.6067,-0.6061,-0.606,-0.6053,-0.6057,-0.6057,-0.6063,-0.605,-0.6067,-0.6067,-0.6068,-0.6082,-0.6085,-0.6086,0,0,0,0,0,-0.6082,-0.609,-0.6085,-0.6085,-0.6082,-0.6083,-0.6082,-0.6075,-0.6069,-0.6072,-0.6067,-0.606,-0.6062,-0.6058,-0.6058,-0.6063,-0.6066,-0.6067,-0.6068,-0.6082,-0.6084,-0.6086,0,0,0,0,0,0,-0.6097,-0.6089,-0.6084,-0.609,-0.6087,-0.608,-0.6084,-0.6078,-0.6077,-0.6075,-0.6066,-0.6065,-0.607,-0.6067,-0.6062,-0.6072,-0.6063,-0.6064,-0.6073,-0.6076,-0.6078,-0.6078,-0.605,0,0,0,0,0,-0.6101,-0.6102,-0.6095,-0.6101,-0.61,-0.6092,-0.6092,-0.6087,-0.6084,-0.6082,-0.6078,-0.6075,-0.6075,-0.6075,-0.6075,-0.6082,-0.608,-0.6086,-0.6088,-0.609,-0.6091,-0.6094,-0.6096,-0.6072,-0.6072,-0.6072,0,0,-0.6109,-0.6105,-0.6106,-0.6104,-0.6101,-0.6103,-0.6091,-0.6094,-0.6094,-0.6083,-0.6086,-0.6082,-0.6079,-0.6084,-0.6086,-0.6082,-0.6097,-0.6091,-0.6092,-0.6092,-0.6095,-0.6097,-0.6099,-0.6073,-0.6072,-0.6072,0,0,-0.6125,-0.6122,-0.6127,-0.6124,-0.612,-0.6115,-0.6116,-0.611,-0.6107,-0.611,-0.6102,-0.6103,-0.6103,-0.61,-0.6099,-0.6114,-0.6107,-0.6114,-0.6125,-0.6128,-0.613,-0.6131,-0.6136,-0.6138,-0.6115,-0.6115,-0.6115,0,-0.6136,-0.6138,-0.613,-0.6132,-0.6131,-0.6121,-0.6125,-0.6123,-0.6119,-0.6119,-0.6114,-0.6114,-0.6111,-0.6115,-0.6119,-0.6118,-0.6119,-0.6115,-0.613,-0.6132,-0.6133,-0.6138,-0.614,-0.6116,-0.6116,-0.6116,-0.6116,0,-0.6151,-0.6153,-0.6157,-0.6153,-0.6153,-0.6156,-0.6149,-0.6149,-0.6144,-0.6139,-0.6142,-0.6138,-0.6136,-0.6137,-0.6132,-0.6141,-0.6138,-0.6132,-0.6123,-0.6136,-0.614,-0.6142,-0.6117,-0.6117,-0.6117,-0.6117,0,0,-0.6177,-0.6168,-0.617,-0.6168,-0.6163,-0.6163,-0.6166,-0.6165,-0.6165,-0.6163,-0.6165,-0.6165,-0.616,-0.6158,-0.6153,-0.6155,-0.6167,-0.6149,-0.6148,-0.6152,-0.6176,-0.6181,-0.6183,-0.6162,-0.6163,-0.6163,-0.6176,0,-0.6191,-0.6196,-0.6188,-0.6194,-0.6195,-0.6185,-0.6188,-0.6185,-0.618,-0.6181,-0.6176,-0.6176,-0.6169,-0.6168,-0.617,-0.6165,-0.6172,-0.6164,-0.6164,-0.6164,-0.6165,-0.6185,-0.619,-0.6203,-0.6178,-0.6178,-0.6178,0,-0.6209,-0.6207,-0.6213,-0.6207,-0.6207,-0.621,-0.6207,-0.6208,-0.6204,-0.6201,-0.6199,-0.6192,-0.6195,-0.6186,-0.6189,-0.6184,-0.6184,-0.6181,-0.6182,-0.6181,-0.6172,-0.6185,-0.6207,-0.6208,-0.6181,-0.6181,-0.6181,0,-0.6226,-0.6225,-0.6229,-0.6227,-0.6221,-0.6222,-0.622,-0.6216,-0.6215,-0.6213,-0.6213,-0.6211,-0.621,-0.6209,-0.6202,-0.6197,-0.6205,-0.6197,-0.6202,-0.6203,-0.6205,-0.6205,-0.6226,-0.6205,-0.6205,-0.6205,-0.6205,0,-0.6243,-0.6247,-0.6236,-0.6238,-0.6243,-0.6234,-0.6239,-0.6235,-0.6231,-0.6232,-0.6224,-0.6225,-0.6216,-0.6216,-0.621,-0.6213,-0.6213,-0.621,-0.6209,-0.6211,-0.6211,-0.621,-0.6209,-0.6205,-0.6205,-0.6205,-0.6205,0,-0.6262,-0.6256,-0.6259,-0.6252,-0.6251,-0.6254,-0.6248,-0.625,-0.6245,-0.6246,-0.6246,-0.6239,-0.6238,-0.6231,-0.6229,-0.6226,-0.6231,-0.6228,-0.6232,-0.6231,-0.6237,-0.6236,-0.6259,-0.6261,-0.6239,-0.6239,-0.6239,0,-0.6273,-0.6276,-0.627,-0.627,-0.6268,-0.6268,-0.6267,-0.6259,-0.6259,-0.6255,-0.6257,-0.6256,-0.6254,-0.6254,-0.6248,-0.6247,-0.6244,-0.6252,-0.6243,-0.6245,-0.6243,-0.6243,-0.6243,-0.6253,-0.6253,-0.6254,-0.6254,0,-0.6293,-0.629,-0.6289,-0.6287,-0.6287,-0.6285,-0.6283,-0.6283,-0.6274,-0.6274,-0.6274,-0.6273,-0.6271,-0.627,-0.6267,-0.6264,-0.6258,-0.6257,-0.6258,-0.626,-0.6262,-0.626,-0.6236,-0.6256,-0.6256,-0.6256,-0.6256,-0.6255,-0.6309,-0.6311,-0.6307,-0.6306,-0.6303,-0.6301,-0.6302,-0.6298,-0.6297,-0.6295,-0.629,-0.629,-0.6286,-0.6282,-0.628,-0.628,-0.6276,-0.6277,-0.6278,-0.6278,-0.6279,-0.6262,-0.6279,-0.6279,-0.6279,-0.6279,-0.6279,0,-0.6328,-0.6325,-0.6325,-0.6321,-0.6321,-0.6315,-0.6312,-0.6312,-0.6312,-0.6309,-0.6308,-0.6307,-0.6306,-0.63,-0.6298,-0.6299,-0.6296,-0.6299,-0.6299,-0.6298,-0.6283,-0.6282,-0.6302,-0.6302,-0.6302,-0.6302,-0.6302,-0.6302,-0.6338,-0.6341,-0.6337,-0.6338,-0.6335,-0.6335,-0.6334,-0.6332,-0.6329,-0.6329,-0.6328,-0.6324,-0.632,-0.6317,-0.6316,-0.6314,-0.6314,-0.6318,-0.6315,-0.6301,-0.6299,-0.6297,-0.6296,-0.6318,-0.6318,-0.633,-0.633,-0.633]}]]